Flag Weather past 2 weeks in Xiamen, Fujian, China

Now
72 °F

Fog.


Feels Like: 67 °F
Forecast: 71 / 77 °F
Wind: 3 mph from Northwest

Location: Xiamen Airport

Current Time: Nov 28, 2014 at 9:49:47 PM

Latest Report: Nov 28, 2014 at 9:00 PM


Visibility: 3 mi

Pressure: 29.98 "Hg

Humidity: 94%

Dew point: 70 °F

Location of XiamenLocation

Historic Weather in Xiamen — Graph

°F

Xiamen temperature yesterday

Maximum temperature yesterday: 75 °F (at 11:00 AM)
Minimum temperature yesterday: 64 °F (at 1:00 AM)
Average temperature yesterday: 69 °F

Past Weeks' High & Low Weather Summary

 TemperatureHumidityPressure
High81 °F (Nov 22, 12:00 PM)100% (Nov 22, 6:00 AM)30.24 "Hg (Nov 22, 6:00 AM)
Low59 °F (Nov 20, 4:00 AM)29% (Nov 18, 3:00 PM)29.86 "Hg (Nov 25, 3:00 PM)
Average69 °F72%30.08 "Hg
* Reported Nov 13 8:00 PM — Nov 28 8:00 PM, Xiamen, Weather by CustomWeather, © 2014

Note: Actual official high and low records may vary slightly from our data, if they occured in-between our weather recording intervals... More about our weather records

Advertising

Xiamen weather history for previous 24 hours

 ConditionsComfort  
Time TempWeatherWind HumidityBarometerVisibility
8:00 PM
Nov 28
72 °FPassing clouds.1 mph94%29.98 "Hg4 mi
7:00 PM72 °FPassing clouds.1 mph94%29.98 "Hg4 mi
6:00 PM72 °FPassing clouds.1 mph94%29.95 "Hg4 mi
5:00 PM73 °FScattered clouds.3 mph89%29.95 "Hg4 mi
4:00 PM73 °FMore clouds than sun.1 mph89%29.95 "Hg4 mi
3:00 PM75 °FOvercast.3 mph83%29.95 "Hg4 mi
2:00 PM75 °FPartly sunny.1 mph78%29.95 "Hg6 mi
1:00 PM73 °FOvercast.1 mph83%29.98 "Hg6 mi
12:00 PM70 °FBroken clouds.3 mph94%30.01 "Hg5 mi
11:00 AM68 °FRain showers. Partly sunny.3 mph100%30.07 "Hg4 mi
10:00 AM70 °FLight rain. Fog.1 mph100%30.07 "Hg3 mi
9:00 AM70 °FLight rain. Fog.3 mph94%30.07 "Hg2 mi
8:00 AM68 °FFog.3 mph100%30.04 "Hg1 mi
7:00 AM68 °FFog.3 mph100%30.04 "Hg1 mi
6:00 AM68 °FFog.3 mph100%30.04 "Hg2 mi
5:00 AM68 °FFog.3 mph100%30.01 "Hg1 mi
4:00 AM68 °FFog.6 mph100%30.01 "Hg1 mi
3:00 AM68 °FFog.1 mph100%30.01 "Hg2 mi
2:00 AM68 °FFog.1 mph100%30.01 "Hg2 mi
1:00 AM68 °FFog.1 mph100%30.01 "Hg2 mi
12:00 AM68 °FFog.1 mph100%30.01 "Hg2 mi
11:00 PM
Nov 27
68 °FFog.1 mph100%30.04 "Hg3 mi
10:00 PM68 °FPassing clouds.No wind100%30.04 "Hg3 mi
9:00 PM68 °FPassing clouds.1 mph100%30.04 "Hg4 mi
Weather by CustomWeather, © 2014

See weather overviewHow to use our weather pages